EUTELSAT 115 WEST B

Last updated on Thu Nov 21 2024 00:02:42 GMT+0000 (Coordinated Universal Time)

1 40425U 15010B 24324.72751090 -.00000023 00000+0 00000+0 0 9992 2 40425 0.0103 147.1965 0000410 325.2238 93.8405 1.00271776 35631
UTC large
Height (km)
Speed (km/s)
/
Latitude / Longitude
Inclination (degrees)
Orbital Period (minutes)
Azimuth
Elevation
Range (km)
Doppler Factor

Next 0 passes for location: London (51.5072 / 0.1276)

Sorry there are no passes over London.